Location: Battersea Observatory
(44.4318°N, 76.3841°W)
Time: 21:38:56
(UTC-04:00)

Tiros 1 despin weight - Pass Details

Date: 23 January 2022
Orbit: 592 x 639 km, 48.2° (Epoch: 25 May)

Event Time Altitude Azimuth Distance (km) Brightness Sun altitude
Rises 22:21:32 0° 291° (WNW) 2,929 - -55.1°
Reaches altitude 10° 22:23:51 10° 291° (WNW) 2,024 - -55.4°
Maximum altitude 22:28:32 82° 204° (SSW) 649 - -56.1°
Drops below altitude 10° 22:33:13 10° 117° (ESE) 2,028 - -56.7°
Sets 22:35:32 0° 117° (ESE) 2,935 - -57.0°
